User: anonymous
Location: Albany
(35.0000°S, 118.0000°E)
Time: 23:41:49
(UTC-04:00)
Language:

Centaur D-1AR AC-48 - Orbit

View from above orbital plane
View from above orbital plane
View from above satellite
View from above satellite

Ground track
Ground track

The orbit data is extracted from the following two-line orbital elements,

1 10779U 78035B   14291.85097385 -.00000225  00000-0 -37519-3 0  9662
2 10779 021.6621 046.4496 7179959 134.0667 316.7632 02.22639082297034
Epoch (UTC): 18 October 2014 20:25:24
Eccentricity: 0.7179959
inclination: 21.6621°
perigee height: 608 km
apogee height: 36183 km
right ascension of ascending node: 46.4496°
argument of perigee: 134.0667°
revolutions per day: 2.22639082
mean anomaly at epoch: 316.7632°
orbit number at epoch: 29703

The dashed part of the orbit path shows where the satellite is in the earth's shadow,  

DLR